Weather History for Marathon, FL

Change the Weather History Date:

Thursday, October 25, 2012

  Actual Average Record
Temperature  
Mean Temperature 77 °F 79 °F  
Max Temperature 81 °F 84 °F 90 °F (2002)
Min Temperature 72 °F 74 °F 66 °F (2006)
Degree Days  
Heating Degree Days 0 0  
Month to date heating degree days 0 0  
Since 1 July heating degree days 0 0  
Cooling Degree Days 12 14  
Month to date cooling degree days 453 405  
Year to date cooling degree days 4696 4359  
Growing Degree Days 26 (Base 50)    
Moisture  
Dew Point 69 °F    
Average Humidity 77    
Maximum Humidity 85    
Minimum Humidity 69    
Precipitation  
Precipitation 0.78 in 0.15 in 0.78 in (2012)
Month to date precipitation 3.59 3.95  
Year to date precipitation 43.72 40.50  
Snow  
Snow 0.00 in - - ()
Month to date snowfall 0.0  
Since 1 July snowfall 0.0  
Since 1 September snowfall 0.0  
Snow Depth 0.00 in    
Sea Level Pressure  
Sea Level Pressure 29.71 in    
Wind  
Wind Speed 16 mph (NNE)    
Max Wind Speed 37 mph    
Max Gust Speed 47 mph    
Visibility 8 miles    
Events Rain    
T = Trace of Precipitation, MM = Missing Value Source: NWS Daily Summary

Daily Weather History Graph

Daily Weather History Graph

Search for Another Location

Airport:

Trip Planner

Search our weather history database for the weather conditions in past years. The results will help you decide how hot, cold, wet, or windy it might be!

Date:

Astronomy

Oct. 25, 2012 Rise Set
Actual Time 7:27 AM EDT 6:48 PM EDT
Civil Twilight 7:04 AM EDT 7:11 PM EDT
Nautical Twilight 6:37 AM EDT 7:38 PM EDT
Astronomical Twilight 6:10 AM EDT 8:05 PM EDT
Moon 4:14 PM EDT (10/25) 3:45 AM EDT (10/25)
Length of Visible Light 12h 07m
Length of Day
11h 20m
Waxing Gibbous, 84% of the Moon is Illuminated
Oct 25
Waxing Gibbous
Oct 29
Full
Nov 6
Last Quarter
Nov 13
New
Nov 20
First Quarter

Hourly Weather History & Observations

Time (EDT) Temp. Heat Index Dew Point Humidity Pressure Visibility Wind Dir Wind Speed Gust Speed Precip Events Conditions
12:53 AM 75.9 °F - 73.9 °F 94% 29.79 in 10.0 mi North 15.0 mph 23.0 mph 0.01 in   Mostly Cloudy
1:53 AM 78.1 °F - 73.9 °F 87% 29.77 in 10.0 mi NE 16.1 mph 24.2 mph 0.00 in   Mostly Cloudy
2:53 AM 79.0 °F - 71.1 °F 77% 29.73 in 10.0 mi ENE 17.3 mph 21.9 mph N/A   Clear
3:53 AM 78.1 °F - 73.9 °F 87% 29.72 in 10.0 mi NNE 12.7 mph - N/A   Mostly Cloudy
4:53 AM 78.1 °F - 73.9 °F 87% 29.72 in 10.0 mi NNE 12.7 mph 19.6 mph N/A   Clear
5:53 AM 75.9 °F - 75.0 °F 97% 29.72 in 5.0 mi North 11.5 mph 25.3 mph 0.03 in Rain Rain
6:28 AM 75.2 °F - 75.2 °F 100% 29.72 in 10.0 mi NNE 13.8 mph 19.6 mph 0.02 in   Overcast
6:53 AM 75.9 °F - - N/A% 29.73 in 10.0 mi NNE 13.8 mph - 0.08 in   Mostly Cloudy
7:53 AM 75.9 °F - - N/A% 29.73 in 10.0 mi NNE 12.7 mph 18.4 mph 0.00 in   Scattered Clouds
8:29 AM 75.2 °F - - N/A% 29.74 in 10.0 mi NNE 9.2 mph - 0.01 in Rain Light Rain
8:37 AM 75.2 °F - - N/A% 29.74 in 10.0 mi North 13.8 mph 19.6 mph 0.01 in   Mostly Cloudy
8:53 AM 75.9 °F - - N/A% 29.75 in 10.0 mi North 11.5 mph 18.4 mph 0.01 in   Overcast
9:25 AM 75.2 °F - - N/A% 29.75 in 10.0 mi North 15.0 mph 23.0 mph 0.00 in Rain Light Rain
9:43 AM 75.2 °F - - N/A% 29.75 in 10.0 mi NNE 16.1 mph 23.0 mph 0.01 in Rain Light Rain
9:53 AM 75.9 °F - - N/A% 29.75 in 10.0 mi North 11.5 mph 21.9 mph 0.01 in Rain Light Rain
10:04 AM 75.2 °F - - N/A% 29.75 in 7.0 mi NNE 15.0 mph 23.0 mph 0.01 in Rain Light Rain
10:37 AM 73.4 °F - - N/A% 29.77 in 10.0 mi NE 25.3 mph 36.8 mph 0.01 in Rain Light Rain
10:53 AM 75.0 °F - - N/A% 29.76 in 10.0 mi NE 19.6 mph 32.2 mph 0.01 in Rain Light Rain
11:53 AM 77.0 °F - - N/A% 29.73 in 10.0 mi NNE 13.8 mph 27.6 mph 0.01 in   Mostly Cloudy
12:53 PM 80.1 °F 83.2 °F 70.0 °F 71% 29.71 in 10.0 mi NNE 13.8 mph 25.3 mph N/A   Mostly Cloudy
1:53 PM 80.1 °F 83.2 °F 70.0 °F 71% 29.68 in 10.0 mi North 13.8 mph 21.9 mph 0.00 in   Overcast
2:36 PM 73.4 °F - 66.2 °F 78% 29.69 in 2.5 mi NE 29.9 mph 43.7 mph 0.01 in Rain Light Rain
2:45 PM 71.6 °F - 66.2 °F 83% 29.68 in 1.5 mi NNE 25.3 mph 47.2 mph 0.05 in Rain Heavy Rain
2:53 PM 72.0 °F - 66.0 °F 81% 29.67 in 2.0 mi NNE 16.1 mph 36.8 mph 0.07 in Rain Rain
3:03 PM 73.4 °F - 66.2 °F 78% 29.66 in 6.0 mi NNE 19.6 mph 29.9 mph 0.00 in Rain Light Rain
3:53 PM 77.0 °F - 66.9 °F 71% 29.65 in 10.0 mi NNE 17.3 mph 29.9 mph 0.01 in Rain Light Rain
4:46 PM 73.4 °F - 68.0 °F 83% 29.66 in 1.8 mi NNE 19.6 mph 41.4 mph 0.03 in Rain Rain
4:53 PM 73.9 °F - 68.0 °F 82% 29.65 in 2.5 mi NE 21.9 mph 34.5 mph 0.04 in Rain Light Rain
5:00 PM 73.4 °F - 66.2 °F 78% 29.65 in 7.0 mi NE 21.9 mph 32.2 mph 0.00 in Rain Light Rain
5:53 PM 77.0 °F - 68.0 °F 74% 29.67 in 9.0 mi NNE 16.1 mph 24.2 mph 0.00 in Rain Light Rain
5:56 PM 75.2 °F - 68.0 °F 78% 29.69 in 1.5 mi NE 29.9 mph 36.8 mph 0.12 in Rain Light Rain
6:15 PM 73.4 °F - 66.2 °F 78% 29.68 in 2.5 mi NNE 26.5 mph 35.7 mph 0.19 in Rain Rain
6:48 PM 73.4 °F - 66.2 °F 78% 29.69 in 5.0 mi NNE 20.7 mph 33.4 mph 0.27 in Rain Rain
6:53 PM 73.0 °F - 68.0 °F 84% 29.70 in 5.0 mi NNE 19.6 mph 33.4 mph 0.27 in Rain Rain
7:53 PM 73.0 °F - 66.0 °F 79% 29.69 in 7.0 mi NNE 26.5 mph 40.3 mph 0.07 in Rain Light Rain
8:53 PM 73.9 °F - 63.0 °F 68% 29.69 in 10.0 mi NNE 25.3 mph 39.1 mph 0.02 in   Overcast
9:53 PM 75.9 °F - 64.0 °F 67% 29.68 in 10.0 mi North 13.8 mph 24.2 mph N/A   Overcast
10:53 PM 73.9 °F - 66.0 °F 76% 29.70 in 6.0 mi NNW 15.0 mph 26.5 mph 0.03 in Rain Light Rain
11:53 PM 75.0 °F - 68.0 °F 79% 29.67 in 10.0 mi North 13.8 mph 26.5 mph 0.04 in   Overcast